Regional Weather Roundup
Issued by NWS Wakefield, VA

Current Version | Previous Version | Text Only | Print | Product List | Glossary On
Versions: 1 2 3 4 5 6 7 8 9 10 11 12 13 14 15 16 17 18 19 20 21 22 23 24 25 26 27 28 29 30 31 32 33 34 35 36 37 38 39 40 41 42 43 44 45 46 47 48
000 ASUS41 KAKQ 021715 RWRAKQ REGIONAL WEATHER ROUNDUP NATIONAL WEATHER SERVICE WAKEFIELD VA 1200 PM EST TUE MAR 02 2021 Note: "fair" indicates few or no clouds below 12,000 feet with no significant weather and/or obstructions to visibility. * = Denotes station may not report precipitation (e.g., rain,snow,etc.), thunder or fog. VAZ042-051-052>054-056-021800- NORTHERN VIRGINIA CITY SKY/WX TMP DP RH WIND PRES REMARKS WASH NATIONAL MOSUNNY 39 12 33 N14 30.32F DULLES MOSUNNY 38 12 34 NW14G21 30.31F FORT BELVOIR SUNNY 39 9 28 NW10G18 30.31S QUANTICO SUNNY 42 12 29 N17G24 30.33S FREDERICKSBRG* SUNNY 42 11 28 N7G17 30.32R STAFFORD* SUNNY 42 3 19 NW9G18 30.35R WARRENTON SUNNY 42 10 27 N5 30.30S CULPEPER* SUNNY 43 11 27 N7 30.32R MANASSAS* SUNNY 39 14 36 N15 30.31F LEESBURG* SUNNY 36 14 41 N10G17 30.31F WINCHESTER SUNNY 34 12 40 NW8 30.28S FRONT ROYAL* FAIR 37 12 35 N8 30.28S LURAY* FAIR 41 10 28 NW7 30.28S $$ VAZ048-049-060>072-079>083-021800- CENTRAL AND SOUTH CENTRAL VIRGINIA CITY SKY/WX TMP DP RH WIND PRES REMARKS RICHMOND MOSUNNY 44 17 33 N9 30.31S CHESTERFIELD* FAIR 42 15 33 N8 30.31S PETERSBURG* MOSUNNY 44 19 37 NE6 30.30F HANOVER SUNNY 43 13 29 N6G18 30.33R TAPPAHANNOCK* SUNNY 42 16 35 NW6 30.31S QUINTON* FAIR 42 13 30 W12 30.32R CHARLOTTSVILLE SUNNY 45 13 27 NW8 30.28R GORDONSVILLE* FAIR 43 11 27 N5 30.29R ORANGE* SUNNY 41 14 33 N7 30.30R LOUISA* NOT AVBL BUMPASS* NOT AVBL FARMVILLE* NOT AVBL CREWE* NOT AVBL FORT PICKETT* FAIR 43 20 39 N5 30.30R CHASE CITY* FAIR 45 14 29 CALM 30.28F CLARKSVILLE* FAIR 46 21 36 CALM 30.28S SOUTH HILL* PTSUNNY 45 13 28 CALM 30.35S LAWRENCEVILLE* FAIR 44 20 38 CALM 30.30S EMPORIA* MOSUNNY 44 21 40 MISG 30.32S $$ VAZ088>098-021800- SOUTHEAST VIRGINIA CITY SKY/WX TMP DP RH WIND PRES REMARKS NORFOLK MOSUNNY 43 22 43 NE14 30.31R VIRGINIA BEACH MOSUNNY 43 18 36 N13G21 30.31R NORFOLK NAVAL MOSUNNY 43 17 35 N16 30.32S WEST POINT* SUNNY 42 16 34 N7 30.33R SALUDA* FAIR 40 16 38 NW10G16 30.31S NEWPORT NEWS SUNNY 42 15 33 NW12 30.31R LANGLEY AFB MOSUNNY 43 18 36 NE12 30.30R FORT EUSTIS MOSUNNY 43 15 32 N7 30.30R WILLIAMSBURG* SUNNY 46 19 34 NE5 30.32R HR EXEC AP* FAIR 44 17 33 VRB6 30.31S FRANKLIN* MOSUNNY 44 21 39 N9 30.32R US460-WAKEFLD MOSUNNY 44 21 40 NE6 30.31R $$ VAZ020-022-025-037-045-021800- WEST CENTRAL AND SOUTHWEST VIRGINIA CITY SKY/WX TMP DP RH WIND PRES REMARKS STAUNTON* SUNNY 40 15 35 N6 30.29R WAYNESBORO* FAIR 39 13 34 NE6 30.26R HOT SPRINGS VA SUNNY 32 3 29 N6 30.15F LYNCHBURG MOSUNNY 46 13 26 W5 30.28R DANVILLE PTSUNNY 46 13 26 NE10 30.28S SOUTH BOSTON* FAIR 46 16 29 NW5 30.29S MARTINSVILLE PTSUNNY 44 18 35 NW6 30.30F ROANOKE PTSUNNY 42 14 32 VRB3 30.29R BLACKSBURG PTSUNNY 36 17 45 W3 30.28S DUBLIN* PTSUNNY 37 15 41 W3 30.26F MARION* PTSUNNY 39 14 35 E5 30.24F HILLSVILLE* PTSUNNY 37 7 28 N6 30.20F RICHLANDS* FAIR 33 14 44 N3 30.22F WISE* MOSUNNY 34 12 40 CALM 30.24S ABINGDON* PTSUNNY 39 13 33 CALM 30.26R $$ MDZ021>025-VAZ099-100-021800- SOUTHERN MARYLAND AND THE DELMARVA PENINSULA CITY SKY/WX TMP DP RH WIND PRES REMARKS PATUXENT RIVER SUNNY 41 15 35 NW15G24 30.29F BAY BRIDGE APT SUNNY 37 14 38 N9 30.31F LEONARDTOWN SUNNY 36 10 35 NW7 30.30F DOVER SUNNY 35 20 55 W17 30.27F WCI 24 GEORGETOWN SUNNY 37 10 32 N9G17 30.28F EASTON SUNNY 37 14 38 N13G18 30.34F CAMBRIDGE NOT AVBL SALISBURY SUNNY 37 16 42 NW14G24 30.28S TANGIER NOT AVBL OCEAN CITY SUNNY 39 16 39 N15 30.27F WALLOPS ISLAND SUNNY 40 14 34 N12 30.28S ACCOMACK* SUNNY 37 17 42 NW17G24 30.30S $$ NCZ012>017-030>032-021800- NORTH CENTRAL AND EASTERN NORTH CAROLINA CITY SKY/WX TMP DP RH WIND PRES REMARKS ROANOKE RAPIDS FAIR 45 28 53 NW5 30.30R RALEIGH PTSUNNY 48 24 39 E5 30.29R ELIZABETH CITY MOSUNNY 46 22 38 N12 30.31R AHOSKIE* PTSUNNY 45 21 38 NW5 30.30S EDENTON* MOSUNNY 48 29 46 NE7G16 30.31R CURRITUCK* MOSUNNY 43 26 50 N10G17 30.31R KILL DEVIL HLS MOSUNNY 41 21 45 N6G18 30.31R MANTEO MOSUNNY 43 22 43 NE13G21 30.31R CAPE HATTERAS PTSUNNY 46 30 53 VRB7G25 30.28S TARBORO* FAIR 48 21 34 N7 30.30S GOLDSBORO MOSUNNY 49 25 38 E8 30.28R WASHINGTON PTSUNNY 50 21 31 NE8 30.31R GREENVILLE PTSUNNY 50 23 34 NE6 30.31R NEW BERN PTSUNNY 49 26 41 NE9 30.29S WILMINGTON CLOUDY 52 25 35 N10 30.29R $$ VAZ048-021800- ELSEWHERE CITY SKY/WX TMP DP RH WIND PRES REMARKS HARRISBURG PA SUNNY 33 10 38 W9G20 30.28F BALTIMORE MOSUNNY 38 8 29 W8G20 30.29F ANNAPOLIS SUNNY 36 13 38 NW9 30.30F ANDREWS AFB SUNNY 37 11 33 NW13 30.28F PHILADELPHIA MOSUNNY 32 6 33 NW15G25 30.28S WCI 22 HENDERSON NC PTSUNNY 46 17 31 W3 30.28F GREENSBORO CLOUDY 46 14 27 VRB6 30.27S ROCKY MOUNT PTSUNNY 49 22 34 N6 30.30R $$ VAZ100-021800- MARINE STATION/POSITION TIME TEMP WIND PRES WAVE SWELL AIR SEA DIR/SP/G HT/PER HT/PER (UTC) (F) (DEG/KT/KT) (MB) (FT/S) (FT/S) $$

USA.gov is the U.S. government's official web portal to all federal, state and local government web resources and services.